| time (UTC) | temp F | wind direction | speed knots | gust knots | rain 1hr in | rain 24hr in | rain mn in | humidity % | barometer mb |
| 20260510044829 | 64 | 55 | 1.7 | 15.6 | 0.08 | 0.00 | 0.08 | 86 | 1013.9 |
| 20260510044329 | 64 | 349 | 5.2 | 14.8 | 0.08 | 0.00 | 0.08 | 87 | 1014.0 |
| 20260510044219 | 64 | 10 | 11.3 | 16.5 | 0.06 | 0.00 | 0.07 | 85 | 1013.7 |
| 20260510043829 | 64 | 10 | 11.3 | 16.5 | 0.06 | 0.00 | 0.07 | 85 | 1013.7 |
| 20260510043720 | 65 | 7 | 5.2 | 16.5 | 0.05 | 0.06 | 0.06 | 84 | 1013.7 |
| 20260510043540 | 65 | 7 | 5.2 | 16.5 | 0.05 | 0.06 | 0.06 | 84 | 1013.7 |
| 20260510042827 | 66 | 338 | 5.2 | 7.0 | 0.03 | 0.04 | 0.04 | 80 | 1013.2 |
| 20260510042328 | 68 | 344 | 2.6 | 7.8 | 0.02 | 0.02 | 0.02 | 74 | 1013.0 |
| 20260510041827 | 69 | 16 | 1.7 | 10.4 | 0.01 | 0.01 | 0.01 | 70 | 1013.0 |
| 20260510041327 | 70 | 321 | 5.2 | 10.4 | 0.00 | 0.00 | 0.00 | 65 | 1013.5 |
| 20260510040840 | 73 | 122 | 1.7 | 9.6 | 0.00 | 0.00 | 0.00 | 56 | 1011.8 |
| 20260510040717 | 73 | 1 | 2.6 | 15.6 | 0.00 | 0.00 | 0.00 | 55 | 1011.6 |
| 20260510040327 | 73 | 1 | 2.6 | 15.6 | 0.00 | 0.00 | 0.00 | 55 | 1011.6 |
| 20260510035827 | 73 | 40 | 5.2 | 15.6 | 0.00 | 0.00 | 0.00 | 53 | 1010.4 |
| 20260510035327 | 73 | 127 | 3.5 | 9.6 | 0.00 | 0.00 | 0.00 | 54 | 1009.2 |
| 20260510034827 | 73 | 79 | 7.8 | 9.6 | 0.00 | 0.00 | 0.00 | 53 | 1009.3 |
| 20260510034327 | 74 | 116 | 2.6 | 14.8 | 0.00 | 0.00 | 0.00 | 53 | 1008.7 |
| 20260510034220 | 74 | 152 | 2.6 | 15.6 | 0.00 | 0.00 | 0.00 | 51 | 1008.7 |
| 20260510034038 | 74 | 152 | 2.6 | 15.6 | 0.00 | 0.00 | 0.00 | 51 | 1008.7 |
| 20260510033729 | 74 | 139 | 5.2 | 15.6 | 0.00 | 0.00 | 0.00 | 51 | 1008.7 |
| 20260510033539 | 74 | 139 | 5.2 | 15.6 | 0.00 | 0.00 | 0.00 | 51 | 1008.7 |
| 20260510032827 | 73 | 95 | 4.3 | 11.3 | 0.00 | 0.00 | 0.00 | 52 | 1008.7 |
| 20260510032327 | 73 | 98 | 3.5 | 14.8 | 0.00 | 0.00 | 0.00 | 53 | 1008.4 |
| 20260510031827 | 74 | 120 | 2.6 | 14.8 | 0.00 | 0.00 | 0.00 | 54 | 1008.3 |
| 20260510031328 | 73 | 133 | 4.3 | 11.3 | 0.00 | 0.00 | 0.00 | 55 | 1008.5 |
| 20260510030828 | 73 | 95 | 4.3 | 10.4 | 0.00 | 0.00 | 0.00 | 55 | 1008.8 |
| 20260510030328 | 73 | 46 | 4.3 | 10.4 | 0.00 | 0.00 | 0.00 | 56 | 1008.6 |
| 20260510025829 | 74 | 74 | 6.1 | 8.7 | 0.00 | 0.00 | 0.00 | 55 | 1008.4 |
| 20260510025328 | 74 | 154 | 2.6 | 8.7 | 0.00 | 0.00 | 0.00 | 54 | 1009.1 |
| 20260510025041 | 74 | 166 | 5.2 | 5.2 | 0.00 | 0.00 | 0.00 | 54 | 1009.1 |
| 20260510025029 | 74 | 207 | 6.1 | 7.8 | 0.00 | 0.00 | 0.00 | 54 | 1009.1 |
| 20260510024923 | 74 | 202 | 5.2 | 7.8 | 0.00 | 0.00 | 0.00 | 53 | 1008.9 |
| 20260510024504 | 74 | 207 | 6.1 | 7.8 | 0.00 | 0.00 | 0.00 | 54 | 1009.1 |
| 20260510024039 | 74 | 166 | 5.2 | 5.2 | 0.00 | 0.00 | 0.00 | 54 | 1009.1 |
| 20260510023328 | 74 | 186 | 0.0 | 6.1 | 0.00 | 0.00 | 0.00 | 54 | 1009.0 |
| 20260510022828 | 74 | 135 | 1.7 | 6.1 | 0.00 | 0.00 | 0.00 | 54 | 1008.8 |
| 20260510022327 | 74 | 169 | 2.6 | 6.1 | 0.00 | 0.00 | 0.00 | 54 | 1008.8 |
| 20260510021827 | 74 | 196 | 0.9 | 4.3 | 0.00 | 0.00 | 0.00 | 54 | 1008.6 |
| 20260510021327 | 74 | 141 | 1.7 | 4.3 | 0.00 | 0.00 | 0.00 | 54 | 1008.4 |
| 20260510020826 | 74 | 164 | 1.7 | 4.3 | 0.00 | 0.00 | 0.00 | 54 | 1008.1 |
| 20260510020326 | 74 | 146 | 1.7 | 4.3 | 0.00 | 0.00 | 0.00 | 53 | 1008.0 |
| 20260510015827 | 74 | 194 | 1.7 | 5.2 | 0.00 | 0.00 | 0.00 | 53 | 1007.9 |
| 20260510015326 | 74 | 164 | 1.7 | 5.2 | 0.00 | 0.00 | 0.00 | 53 | 1007.5 |
| 20260510014826 | 74 | 222 | 3.5 | 4.3 | 0.00 | 0.00 | 0.00 | 53 | 1007.2 |
| 20260510014328 | 74 | 185 | 1.7 | 4.3 | 0.00 | 0.00 | 0.00 | 53 | 1007.3 |
| 20260510013826 | 74 | 170 | 2.6 | 4.3 | 0.00 | 0.00 | 0.00 | 52 | 1007.0 |
| 20260510013754 | 75 | 167 | 1.7 | 4.3 | 0.00 | 0.00 | 0.00 | 52 | 1007.1 |
| 20260510013538 | 75 | 167 | 1.7 | 4.3 | 0.00 | 0.00 | 0.00 | 52 | 1007.1 |
| 20260510012836 | 75 | 162 | 3.5 | 5.2 | 0.00 | 0.00 | 0.00 | 52 | 1007.0 |
| 20260510012722 | 76 | 116 | 1.7 | 3.5 | 0.00 | 0.00 | 0.00 | 51 | 1007.0 |
| 20260510012534 | 75 | 179 | 1.7 | 5.2 | 0.00 | 0.00 | 0.00 | 51 | 1007.0 |
| 20260510012018 | 75 | 165 | 0.9 | 5.2 | 0.00 | 0.00 | 0.00 | 52 | 1007.1 |
| 20260510011328 | 76 | 116 | 1.7 | 3.5 | 0.00 | 0.00 | 0.00 | 51 | 1007.0 |
| 20260510010827 | 76 | 164 | 1.7 | 3.5 | 0.00 | 0.00 | 0.00 | 51 | 1007.0 |
| 20260510010717 | 76 | 116 | 0.9 | 2.6 | 0.00 | 0.00 | 0.00 | 50 | 1007.1 |
| 20260510010326 | 76 | 116 | 0.9 | 2.6 | 0.00 | 0.00 | 0.00 | 50 | 1007.1 |
| 20260510005826 | 77 | 128 | 1.7 | 4.3 | 0.00 | 0.00 | 0.00 | 50 | 1007.1 |
| 20260510005327 | 77 | 153 | 1.7 | 4.3 | 0.00 | 0.00 | 0.00 | 49 | 1007.2 |
| 20260510004827 | 77 | 168 | 0.9 | 6.1 | 0.00 | 0.00 | 0.00 | 49 | 1007.3 |
| 20260510004327 | 77 | 159 | 3.5 | 6.1 | 0.00 | 0.00 | 0.00 | 48 | 1007.1 |
| 20260510003953 | 79 | 166 | 0.9 | 4.3 | 0.00 | 0.00 | 0.00 | 46 | 1007.1 |
| 20260510003938 | 78 | 104 | 0.9 | 4.3 | 0.00 | 0.00 | 0.00 | 46 | 1007.0 |
| 20260510003857 | 78 | 162 | 0.9 | 4.3 | 0.00 | 0.00 | 0.00 | 48 | 1006.9 |
| 20260510003512 | 79 | 102 | 0.9 | 5.2 | 0.00 | 0.00 | 0.00 | 45 | 1007.1 |
| 20260510003413 | 78 | 207 | 0.9 | 3.5 | 0.00 | 0.00 | 0.00 | 48 | 1006.9 |
| 20260510002952 | 78 | 104 | 0.9 | 4.3 | 0.00 | 0.00 | 0.00 | 46 | 1007.0 |
| 20260510002534 | 79 | 166 | 0.9 | 4.3 | 0.00 | 0.00 | 0.00 | 46 | 1007.1 |
| 20260510001728 | 80 | 130 | 1.7 | 6.1 | 0.00 | 0.00 | 0.00 | 44 | 1007.0 |
| 20260510001537 | 80 | 130 | 1.7 | 6.1 | 0.00 | 0.00 | 0.00 | 44 | 1007.0 |
| 20260510000826 | 80 | 202 | 2.6 | 6.1 | 0.00 | 0.00 | 0.00 | 44 | 1007.0 |
| 20260510000326 | 80 | 176 | 2.6 | 10.4 | 0.00 | 0.00 | 0.00 | 43 | 1007.0 |
| 20260509235827 | 81 | 197 | 5.2 | 15.6 | 0.00 | 0.00 | 0.00 | 42 | 1007.1 |
| 20260509235734 | 81 | 181 | 2.6 | 15.6 | 0.00 | 0.00 | 0.00 | 41 | 1007.1 |
| 20260509235539 | 81 | 181 | 2.6 | 15.6 | 0.00 | 0.00 | 0.00 | 41 | 1007.1 |
| 20260509235252 | 82 | 195 | 5.2 | 14.8 | 0.00 | 0.00 | 0.00 | 41 | 1007.1 |
| 20260509235058 | 82 | 195 | 5.2 | 14.8 | 0.00 | 0.00 | 0.00 | 41 | 1007.1 |
| 20260509234328 | 82 | 215 | 10.4 | 14.8 | 0.00 | 0.00 | 0.00 | 40 | 1007.3 |
| 20260509233828 | 83 | 218 | 7.8 | 16.5 | 0.00 | 0.00 | 0.00 | 41 | 1007.3 |
| 20260509233327 | 83 | 213 | 8.7 | 16.5 | 0.00 | 0.00 | 0.00 | 40 | 1007.2 |
| 20260509233053 | 83 | 168 | 5.2 | 11.3 | 0.00 | 0.01 | 0.00 | 41 | 1007.2 |
| 20260509232926 | 83 | 202 | 3.5 | 9.6 | 0.00 | 0.00 | 0.00 | 41 | 1007.2 |
| 20260509232614 | 83 | 168 | 5.2 | 11.3 | 0.00 | 0.01 | 0.00 | 41 | 1007.2 |
| 20260509232451 | 83 | 208 | 2.6 | 11.3 | 0.00 | 0.00 | 0.00 | 42 | 1007.2 |
| 20260509231327 | 83 | 213 | 8.7 | 13.9 | 0.00 | 0.19 | 0.00 | 41 | 1007.3 |
| 20260509230827 | 83 | 194 | 3.5 | 13.9 | 0.00 | 0.19 | 0.00 | 41 | 1007.3 |
| 20260509230336 | 84 | 206 | 7.8 | 12.2 | 0.00 | 0.19 | 0.00 | 42 | 1007.5 |
| 20260509225826 | 84 | 180 | 4.3 | 12.2 | 0.00 | 0.19 | 0.00 | 40 | 1007.5 |
| 20260509225327 | 85 | 159 | 7.0 | 11.3 | 0.00 | 0.19 | 0.00 | 40 | 1007.8 |
| 20260509224827 | 85 | 209 | 3.5 | 11.3 | 0.00 | 0.19 | 0.00 | 39 | 1008.0 |
| 20260509224327 | 85 | 217 | 9.6 | 10.4 | 0.00 | 0.19 | 0.00 | 37 | 1007.8 |
| 20260509224136 | 85 | 212 | 4.3 | 11.3 | 0.00 | 0.19 | 0.00 | 35 | 1007.9 |
| 20260509223819 | 85 | 212 | 4.3 | 11.3 | 0.00 | 0.19 | 0.00 | 35 | 1007.9 |
| 20260509223318 | 85 | 178 | 3.5 | 11.3 | 0.00 | 0.19 | 0.00 | 36 | 1008.1 |
| 20260509222819 | 85 | 142 | 4.3 | 8.7 | 0.00 | 0.19 | 0.00 | 37 | 1008.0 |
| 20260509222320 | 85 | 177 | 7.0 | 7.0 | 0.00 | 0.19 | 0.00 | 35 | 1008.1 |
| 20260509222240 | 85 | 163 | 2.6 | 7.8 | 0.00 | 0.19 | 0.00 | 35 | 1007.9 |
| 20260509222044 | 85 | 163 | 2.6 | 7.8 | 0.00 | 0.19 | 0.00 | 35 | 1007.9 |
| 20260509221808 | 85 | 149 | 1.7 | 9.6 | 0.00 | 0.19 | 0.00 | 34 | 1008.0 |
| 20260509221318 | 85 | 149 | 1.7 | 9.6 | 0.00 | 0.19 | 0.00 | 34 | 1008.0 |
| 20260509220818 | 85 | 136 | 1.7 | 9.6 | 0.00 | 0.19 | 0.00 | 33 | 1007.9 |
| 20260509220318 | 85 | 153 | 4.3 | 9.6 | 0.00 | 0.19 | 0.00 | 33 | 1008.1 |
| 20260509215824 | 87 | 244 | 2.6 | 5.2 | 0.00 | 0.19 | 0.00 | 30 | 1008.0 |
| 20260509215710 | 86 | 209 | 1.7 | 8.7 | 0.00 | 0.19 | 0.00 | 30 | 1008.1 |
| 20260509215320 | 86 | 209 | 1.7 | 8.7 | 0.00 | 0.19 | 0.00 | 30 | 1008.1 |
| 20260509214838 | 84 | 183 | 2.6 | 11.3 | 0.00 | 0.19 | 0.00 | 31 | 1008.2 |
| 20260509214818 | 85 | 175 | 2.6 | 8.7 | 0.00 | 0.19 | 0.00 | 32 | 1008.0 |
| 20260509214319 | 84 | 183 | 2.6 | 11.3 | 0.00 | 0.19 | 0.00 | 31 | 1008.2 |
| 20260509214214 | 85 | 100 | 1.7 | 11.3 | 0.00 | 0.19 | 0.00 | 29 | 1008.3 |
| 20260509213819 | 85 | 100 | 1.7 | 11.3 | 0.00 | 0.19 | 0.00 | 29 | 1008.3 |
| 20260509213316 | 86 | 197 | 4.3 | 8.7 | 0.00 | 0.19 | 0.00 | 31 | 1008.2 |
| 20260509212817 | 84 | 172 | 3.5 | 7.8 | 0.00 | 0.19 | 0.00 | 33 | 1008.3 |
| 20260509212309 | 85 | 102 | 3.5 | 7.0 | 0.00 | 0.19 | 0.00 | 32 | 1008.2 |
| 20260509211809 | 85 | 223 | 0.9 | 7.0 | 0.00 | 0.19 | 0.00 | 33 | 1008.3 |
| 20260509211746 | 84 | 176 | 6.1 | 7.8 | 0.00 | 0.19 | 0.00 | 34 | 1008.4 |
| 20260509211521 | 84 | 176 | 6.1 | 7.8 | 0.00 | 0.19 | 0.00 | 34 | 1008.4 |
| 20260509210808 | 85 | 88 | 7.0 | 7.8 | 0.00 | 0.19 | 0.00 | 32 | 1008.4 |
| 20260509210309 | 85 | 177 | 2.6 | 9.6 | 0.00 | 0.19 | 0.00 | 32 | 1008.6 |
| 20260509210153 | 85 | 216 | 1.7 | 9.6 | 0.00 | 0.19 | 0.00 | 33 | 1008.6 |
| 20260509210019 | 85 | 216 | 1.7 | 9.6 | 0.00 | 0.19 | 0.00 | 33 | 1008.6 |
| 20260509205657 | 85 | 173 | 4.3 | 7.8 | 0.00 | 0.19 | 0.00 | 33 | 1008.7 |
| 20260509205522 | 85 | 173 | 4.3 | 7.8 | 0.00 | 0.19 | 0.00 | 33 | 1008.7 |
| 20260509204808 | 85 | 212 | 6.1 | 11.3 | 0.00 | 0.19 | 0.00 | 33 | 1008.7 |
| 20260509204308 | 84 | 153 | 1.7 | 11.3 | 0.00 | 0.19 | 0.00 | 35 | 1008.6 |
| 20260509203808 | 85 | 172 | 4.3 | 9.6 | 0.00 | 0.19 | 0.00 | 38 | 1008.7 |
| 20260509203309 | 84 | 65 | 3.5 | 7.8 | 0.00 | 0.19 | 0.00 | 38 | 1008.6 |
| 20260509202808 | 84 | 136 | 2.6 | 9.6 | 0.00 | 0.19 | 0.00 | 38 | 1008.7 |
| 20260509202307 | 85 | 214 | 3.5 | 9.6 | 0.00 | 0.19 | 0.00 | 38 | 1008.9 |
| 20260509202203 | 85 | 146 | 2.6 | 9.6 | 0.00 | 0.19 | 0.00 | 41 | 1009.0 |
| 20260509201805 | 85 | 146 | 2.6 | 9.6 | 0.00 | 0.19 | 0.00 | 41 | 1009.0 |
| 20260509201307 | 86 | 222 | 1.7 | 5.2 | 0.00 | 0.19 | 0.00 | 37 | 1009.0 |
| 20260509201131 | 84 | 272 | 2.6 | 7.8 | 0.00 | 0.19 | 0.00 | 39 | 1009.1 |
| 20260509200950 | 84 | 167 | 0.9 | 5.2 | 0.00 | 0.19 | 0.00 | 39 | 1009.1 |
| 20260509200519 | 84 | 272 | 2.6 | 7.8 | 0.00 | 0.19 | 0.00 | 39 | 1009.1 |
| 20260509195809 | 83 | 159 | 1.7 | 11.3 | 0.00 | 0.19 | 0.00 | 40 | 1009.2 |
| 20260509195307 | 83 | 149 | 3.5 | 11.3 | 0.00 | 0.19 | 0.00 | 42 | 1009.2 |
| 20260509195157 | 85 | 223 | 1.7 | 5.2 | 0.00 | 0.19 | 0.00 | 37 | 1009.5 |
| 20260509194807 | 85 | 223 | 1.7 | 5.2 | 0.00 | 0.19 | 0.00 | 37 | 1009.5 |
| 20260509194306 | 83 | 132 | 0.0 | 5.2 | 0.00 | 0.19 | 0.00 | 39 | 1009.2 |
| 20260509193805 | 82 | 178 | 0.0 | 8.7 | 0.00 | 0.19 | 0.00 | 40 | 1009.4 |
| 20260509193308 | 83 | 82 | 5.2 | 8.7 | 0.00 | 0.19 | 0.00 | 40 | 1009.4 |
| 20260509193208 | 84 | 96 | 3.5 | 11.3 | 0.00 | 0.19 | 0.00 | 41 | 1009.6 |
| 20260509192807 | 84 | 96 | 3.5 | 11.3 | 0.00 | 0.19 | 0.00 | 41 | 1009.6 |
| 20260509192713 | 83 | 216 | 5.2 | 11.3 | 0.00 | 0.19 | 0.00 | 41 | 1009.6 |
| 20260509192519 | 83 | 216 | 5.2 | 11.3 | 0.00 | 0.19 | 0.00 | 41 | 1009.6 |
| 20260509191809 | 83 | 187 | 6.1 | 9.6 | 0.00 | 0.19 | 0.00 | 40 | 1009.6 |
| 20260509191305 | 83 | 213 | 4.3 | 7.8 | 0.00 | 0.19 | 0.00 | 38 | 1009.6 |
| 20260509190805 | 83 | 215 | 5.2 | 7.8 | 0.00 | 0.19 | 0.00 | 39 | 1009.7 |
| 20260509190619 | 83 | 211 | 3.5 | 9.6 | 0.00 | 0.19 | 0.00 | 43 | 1009.8 |
| 20260509190443 | 83 | 188 | 2.6 | 7.8 | 0.00 | 0.19 | 0.00 | 41 | 1009.8 |
| 20260509185805 | 83 | 211 | 3.5 | 9.6 | 0.00 | 0.19 | 0.00 | 43 | 1009.8 |
| 20260509185307 | 83 | 254 | 5.2 | 9.6 | 0.00 | 0.19 | 0.00 | 40 | 1009.9 |
| 20260509184807 | 83 | 305 | 2.6 | 8.7 | 0.00 | 0.19 | 0.00 | 41 | 1010.0 |
| 20260509184306 | 83 | 212 | 2.6 | 6.1 | 0.00 | 0.19 | 0.00 | 38 | 1010.0 |
| 20260509183809 | 83 | 223 | 0.0 | 9.6 | 0.00 | 0.19 | 0.00 | 38 | 1009.9 |
| 20260509183308 | 82 | 176 | 1.7 | 9.6 | 0.00 | 0.19 | 0.00 | 41 | 1010.1 |
| 20260509182805 | 82 | 143 | 3.5 | 7.0 | 0.00 | 0.19 | 0.00 | 42 | 1010.1 |
| 20260509182318 | 82 | 67 | 1.7 | 8.7 | 0.00 | 0.19 | 0.00 | 38 | 1010.2 |
| 20260509181806 | 82 | 166 | 2.6 | 10.4 | 0.00 | 0.19 | 0.00 | 42 | 1010.1 |
| 20260509181320 | 81 | 185 | 5.2 | 10.4 | 0.00 | 0.19 | 0.00 | 45 | 1010.2 |
| 20260509180806 | 81 | 202 | 8.7 | 8.7 | 0.00 | 0.19 | 0.00 | 43 | 1010.3 |
| 20260509180306 | 81 | 81 | 3.5 | 10.4 | 0.00 | 0.19 | 0.00 | 44 | 1010.6 |
| 20260509175812 | 80 | 172 | 5.2 | 10.4 | 0.00 | 0.19 | 0.00 | 45 | 1010.6 |
| 20260509175707 | 80 | 118 | 1.7 | 13.0 | 0.00 | 0.19 | 0.00 | 47 | 1010.7 |
| 20260509175521 | 80 | 118 | 1.7 | 13.0 | 0.00 | 0.19 | 0.00 | 47 | 1010.7 |
| 20260509174807 | 79 | 256 | 7.8 | 13.0 | 0.00 | 0.19 | 0.00 | 48 | 1010.9 |
| 20260509174306 | 79 | 284 | 1.7 | 8.7 | 0.00 | 0.19 | 0.00 | 52 | 1010.9 |
| 20260509173806 | 81 | 252 | 6.1 | 9.6 | 0.00 | 0.19 | 0.00 | 50 | 1010.9 |
| 20260509173307 | 81 | 204 | 5.2 | 9.6 | 0.00 | 0.19 | 0.00 | 49 | 1011.0 |
| 20260509172805 | 81 | 211 | 3.5 | 7.0 | 0.00 | 0.19 | 0.00 | 47 | 1010.7 |
| 20260509172704 | 80 | 107 | 3.5 | 7.0 | 0.00 | 0.19 | 0.00 | 50 | 1010.9 |
| 20260509172307 | 80 | 107 | 3.5 | 7.0 | 0.00 | 0.19 | 0.00 | 50 | 1010.9 |
| 20260509171807 | 80 | 203 | 2.6 | 7.0 | 0.00 | 0.19 | 0.00 | 48 | 1010.8 |
| 20260509171308 | 80 | 152 | 1.7 | 11.3 | 0.00 | 0.19 | 0.00 | 55 | 1011.0 |
| 20260509170806 | 78 | 177 | 2.6 | 11.3 | 0.00 | 0.19 | 0.00 | 55 | 1011.1 |
| 20260509170306 | 79 | 156 | 2.6 | 7.0 | 0.00 | 0.19 | 0.00 | 56 | 1011.1 |
| 20260509165806 | 80 | 176 | 3.5 | 7.0 | 0.00 | 0.19 | 0.00 | 60 | 1011.1 |
| 20260509165438 | 79 | 16 | 1.7 | 6.1 | 0.00 | 0.19 | 0.00 | 56 | 1011.2 |
| 20260509165424 | 78 | 172 | 2.6 | 5.2 | 0.00 | 0.19 | 0.00 | 57 | 1011.3 |
| 20260509165336 | 79 | 175 | 1.7 | 5.2 | 0.00 | 0.19 | 0.00 | 61 | 1011.1 |
| 20260509165000 | 79 | 168 | 2.6 | 6.1 | 0.00 | 0.19 | 0.00 | 59 | 1011.3 |
| 20260509164902 | 79 | 109 | 4.3 | 5.2 | 0.00 | 0.19 | 0.00 | 58 | 1011.0 |
| 20260509164441 | 79 | 16 | 1.7 | 6.1 | 0.00 | 0.19 | 0.00 | 56 | 1011.2 |
| 20260509163952 | 79 | 168 | 2.6 | 6.1 | 0.00 | 0.19 | 0.00 | 59 | 1011.3 |
| 20260509163307 | 78 | 172 | 2.6 | 5.2 | 0.00 | 0.19 | 0.00 | 57 | 1011.3 |
| 20260509162806 | 78 | 139 | 0.0 | 7.0 | 0.00 | 0.19 | 0.00 | 58 | 1011.5 |
| 20260509162307 | 77 | 234 | 2.6 | 8.7 | 0.00 | 0.19 | 0.00 | 59 | 1011.5 |
| 20260509161807 | 78 | 197 | 4.3 | 8.7 | 0.00 | 0.19 | 0.00 | 57 | 1011.3 |
| 20260509161717 | 78 | 189 | 1.7 | 5.2 | 0.00 | 0.19 | 0.00 | 64 | 1011.3 |
| 20260509161306 | 78 | 189 | 1.7 | 5.2 | 0.00 | 0.19 | 0.00 | 64 | 1011.3 |
| 20260509161134 | 76 | 210 | 2.6 | 8.7 | 0.00 | 0.19 | 0.00 | 67 | 1011.5 |
| 20260509160307 | 76 | 174 | 5.2 | 8.7 | 0.00 | 0.19 | 0.00 | 63 | 1011.4 |
| 20260509155806 | 76 | 174 | 3.5 | 5.2 | 0.00 | 0.19 | 0.00 | 69 | 1011.1 |
| 20260509155636 | 74 | 173 | 2.6 | 6.1 | 0.00 | 0.19 | 0.00 | 69 | 1011.3 |
| 20260509155449 | 75 | 202 | 3.5 | 5.2 | 0.00 | 0.19 | 0.00 | 69 | 1011.2 |
| 20260509155018 | 74 | 173 | 2.6 | 6.1 | 0.00 | 0.19 | 0.00 | 69 | 1011.3 |
| 20260509154332 | 74 | 135 | 1.7 | 6.1 | 0.00 | 0.19 | 0.00 | 71 | 1011.2 |
| 20260509154238 | 74 | 171 | 3.5 | 7.8 | 0.00 | 0.19 | 0.00 | 70 | 1011.2 |
| 20260509153806 | 74 | 171 | 3.5 | 7.8 | 0.00 | 0.19 | 0.00 | 70 | 1011.2 |
| 20260509153308 | 74 | 207 | 5.2 | 7.8 | 0.00 | 0.19 | 0.00 | 68 | 1011.3 |
| 20260509152808 | 75 | 214 | 4.3 | 7.8 | 0.00 | 0.19 | 0.00 | 69 | 1011.4 |
| 20260509152311 | 74 | 144 | 3.5 | 7.0 | 0.00 | 0.19 | 0.00 | 72 | 1011.2 |
| 20260509152159 | 73 | 164 | 2.6 | 7.0 | 0.00 | 0.19 | 0.00 | 73 | 1011.2 |
| 20260509152019 | 73 | 164 | 2.6 | 7.0 | 0.00 | 0.19 | 0.00 | 73 | 1011.2 |
| 20260509151309 | 73 | 145 | 4.3 | 7.8 | 0.00 | 0.19 | 0.00 | 76 | 1011.2 |
| 20260509150810 | 72 | 167 | 4.3 | 7.8 | 0.00 | 0.19 | 0.00 | 76 | 1011.2 |
| 20260509150309 | 72 | 168 | 5.2 | 7.8 | 0.00 | 0.19 | 0.00 | 74 | 1011.2 |
| 20260509145808 | 72 | 165 | 3.5 | 7.8 | 0.00 | 0.19 | 0.00 | 77 | 1011.2 |
| 20260509145307 | 72 | 157 | 2.6 | 6.1 | 0.00 | 0.19 | 0.00 | 76 | 1011.3 |
| 20260509144808 | 72 | 160 | 1.7 | 6.1 | 0.00 | 0.19 | 0.00 | 77 | 1011.1 |
| 20260509144708 | 72 | 66 | 0.9 | 5.2 | 0.00 | 0.19 | 0.00 | 76 | 1011.1 |
| 20260509144520 | 72 | 66 | 0.9 | 5.2 | 0.00 | 0.19 | 0.00 | 76 | 1011.1 |
| 20260509144115 | 72 | 131 | 1.7 | 4.3 | 0.00 | 0.19 | 0.00 | 77 | 1011.1 |
| 20260509144053 | 73 | 183 | 0.9 | 2.6 | 0.00 | 0.19 | 0.00 | 76 | 1011.2 |
| 20260509143932 | 72 | 91 | 4.3 | 5.2 | 0.00 | 0.19 | 0.00 | 75 | 1011.1 |
| 20260509143436 | 72 | 131 | 1.7 | 4.3 | 0.00 | 0.19 | 0.00 | 77 | 1011.1 |
| 20260509142308 | 72 | 98 | 0.9 | 2.6 | 0.00 | 0.19 | 0.00 | 76 | 1011.2 |
| 20260509141810 | 71 | 345 | 0.0 | 2.6 | 0.00 | 0.19 | 0.00 | 79 | 1011.3 |
| 20260509141309 | 71 | 218 | 0.0 | 2.6 | 0.00 | 0.19 | 0.00 | 80 | 1011.3 |
| 20260509141252 | 70 | 197 | 0.0 | 3.5 | 0.00 | 0.19 | 0.00 | 82 | 1011.1 |
| 20260509140838 | 70 | 197 | 0.0 | 3.5 | 0.00 | 0.19 | 0.00 | 82 | 1011.1 |
| 20260509140309 | 69 | 108 | 0.9 | 3.5 | 0.00 | 0.19 | 0.00 | 83 | 1010.8 |
| 20260509140222 | 69 | 160 | 0.9 | 2.6 | 0.00 | 0.19 | 0.00 | 85 | 1011.0 |
| 20260509135822 | 69 | 160 | 0.9 | 2.6 | 0.00 | 0.19 | 0.00 | 85 | 1011.0 |
| 20260509135309 | 68 | 107 | 0.9 | 2.6 | 0.00 | 0.19 | 0.00 | 85 | 1010.9 |
| 20260509135102 | 66 | 170 | 0.0 | 1.7 | 0.00 | 0.19 | 0.00 | 93 | 1010.8 |
| 20260509134939 | 67 | 94 | 0.9 | 2.6 | 0.00 | 0.19 | 0.00 | 87 | 1010.8 |
| 20260509134305 | 66 | 170 | 0.0 | 1.7 | 0.00 | 0.19 | 0.00 | 93 | 1010.8 |
| 20260509133825 | 65 | 107 | 0.9 | 1.7 | 0.00 | 0.19 | 0.00 | 97 | 1010.8 |
| 20260509133305 | 65 | 164 | 0.0 | 2.6 | 0.00 | 0.19 | 0.00 | 98 | 1010.8 |
| 20260509133005 | 61 | 21 | 1.7 | 1.7 | 0.00 | 0.19 | 0.00 | 98 | 1010.6 |
| 20260509132954 | 62 | 5 | 1.7 | 1.7 | 0.00 | 0.19 | 0.00 | 98 | 1010.8 |
| 20260509132858 | 62 | 341 | 0.9 | 2.6 | 0.00 | 0.19 | 0.00 | 98 | 1010.8 |
| 20260509132649 | 62 | 5 | 1.7 | 1.7 | 0.00 | 0.19 | 0.00 | 98 | 1010.8 |
| 20260509132016 | 61 | 21 | 1.7 | 1.7 | 0.00 | 0.19 | 0.00 | 98 | 1010.6 |
| 20260509131716 | 63 | 50 | 0.0 | 1.7 | 0.00 | 0.19 | 0.00 | 98 | 1010.6 |
| 20260509131318 | 63 | 50 | 0.0 | 1.7 | 0.00 | 0.19 | 0.00 | 98 | 1010.6 |
| 20260509130807 | 65 | 129 | 0.0 | 0.0 | 0.00 | 0.19 | 0.00 | 98 | 1010.6 |
| 20260509130651 | 64 | 129 | 0.0 | 0.9 | 0.00 | 0.19 | 0.00 | 98 | 1010.6 |
| 20260509130306 | 64 | 129 | 0.0 | 0.9 | 0.00 | 0.19 | 0.00 | 98 | 1010.6 |
| 20260509130150 | 61 | 66 | 0.0 | 1.7 | 0.00 | 0.19 | 0.00 | 98 | 1010.4 |
| 20260509130018 | 61 | 66 | 0.0 | 1.7 | 0.00 | 0.19 | 0.00 | 98 | 1010.4 |
| 20260509125308 | 60 | 112 | 0.0 | 1.7 | 0.00 | 0.19 | 0.00 | 98 | 1010.2 |
| 20260509124806 | 60 | 89 | 0.0 | 0.9 | 0.00 | 0.19 | 0.00 | 98 | 1010.3 |
| 20260509124306 | 59 | 100 | 0.0 | 0.9 | 0.00 | 0.19 | 0.00 | 98 | 1010.4 |
| 20260509123804 | 60 | 131 | 0.0 | 0.9 | 0.00 | 0.19 | 0.00 | 98 | 1010.2 |
| 20260509123305 | 58 | 209 | 0.0 | 0.9 | 0.00 | 0.19 | 0.00 | 98 | 1010.3 |
| 20260509122805 | 58 | 142 | 0.0 | 0.0 | 0.00 | 0.19 | 0.00 | 98 | 1010.2 |
| 20260509122308 | 57 | 135 | 0.0 | 0.0 | 0.00 | 0.19 | 0.00 | 98 | 1010.2 |
| 20260509122216 | 56 | 135 | 0.0 | 1.7 | 0.00 | 0.19 | 0.00 | 98 | 1010.0 |
| 20260509121820 | 56 | 135 | 0.0 | 1.7 | 0.00 | 0.19 | 0.00 | 98 | 1010.0 |
| 20260509121710 | 55 | 154 | 0.0 | 1.7 | 0.00 | 0.19 | 0.00 | 98 | 1010.0 |
| 20260509121307 | 55 | 154 | 0.0 | 1.7 | 0.00 | 0.19 | 0.00 | 98 | 1010.0 |
| 20260509120806 | 54 | 203 | 1.7 | 1.7 | 0.00 | 0.19 | 0.00 | 98 | 1010.0 |
| 20260509120328 | 54 | 232 | 1.7 | 1.7 | 0.00 | 0.19 | 0.00 | 98 | 1010.0 |
| 20260509115807 | 53 | 243 | 1.7 | 1.7 | 0.00 | 0.19 | 0.00 | 98 | 1009.9 |
| 20260509115357 | 52 | 103 | 0.0 | 0.9 | 0.00 | 0.19 | 0.00 | 98 | 1009.7 |
| 20260509115308 | 53 | 234 | 1.7 | 1.7 | 0.00 | 0.19 | 0.00 | 98 | 1009.9 |
| 20260509114947 | 52 | 103 | 0.0 | 0.9 | 0.00 | 0.19 | 0.00 | 98 | 1009.7 |
| 20260509114641 | 52 | 229 | 0.0 | 0.9 | 0.00 | 0.19 | 0.00 | 98 | 1009.6 |
| 20260509114450 | 52 | 229 | 0.0 | 0.9 | 0.00 | 0.19 | 0.00 | 98 | 1009.6 |
| 20260509113737 | 53 | 229 | 0.0 | 0.9 | 0.00 | 0.19 | 0.00 | 98 | 1009.8 |
| 20260509113724 | 52 | 113 | 0.0 | 0.9 | 0.00 | 0.19 | 0.00 | 98 | 1009.5 |
| 20260509113447 | 52 | 113 | 0.0 | 0.9 | 0.00 | 0.19 | 0.00 | 98 | 1009.5 |
| 20260509112737 | 53 | 117 | 0.0 | 0.9 | 0.00 | 0.19 | 0.00 | 98 | 1009.2 |
| 20260509112648 | 53 | 193 | 0.0 | 1.7 | 0.00 | 0.19 | 0.00 | 98 | 1009.3 |
| 20260509112237 | 53 | 193 | 0.0 | 1.7 | 0.00 | 0.19 | 0.00 | 98 | 1009.3 |
| 20260509111737 | 53 | 180 | 0.0 | 1.7 | 0.00 | 0.19 | 0.00 | 98 | 1009.3 |
| 20260509111336 | 53 | 249 | 0.0 | 1.7 | 0.00 | 0.19 | 0.00 | 98 | 1009.3 |
| 20260509111325 | 54 | 182 | 0.9 | 1.7 | 0.00 | 0.19 | 0.00 | 98 | 1009.2 |
| 20260509111249 | 53 | 233 | 0.9 | 1.7 | 0.00 | 0.19 | 0.00 | 98 | 1009.3 |
| 20260509110902 | 53 | 249 | 0.0 | 1.7 | 0.00 | 0.19 | 0.00 | 98 | 1009.3 |
| 20260509110815 | 53 | 135 | 0.0 | 0.9 | 0.00 | 0.19 | 0.00 | 98 | 1009.4 |
| 20260509110540 | 54 | 235 | 0.0 | 0.9 | 0.00 | 0.19 | 0.00 | 98 | 1009.3 |
| 20260509105447 | 54 | 182 | 0.9 | 1.7 | 0.00 | 0.19 | 0.00 | 98 | 1009.2 |
| 20260509105137 | 54 | 146 | 0.9 | 1.7 | 0.00 | 0.19 | 0.00 | 98 | 1009.2 |
| 20260509104738 | 54 | 146 | 0.9 | 1.7 | 0.00 | 0.19 | 0.00 | 98 | 1009.2 |
| 20260509104237 | 54 | 113 | 0.0 | 0.0 | 0.00 | 0.19 | 0.00 | 98 | 1009.2 |
| 20260509104136 | 54 | 113 | 0.0 | 0.9 | 0.00 | 0.19 | 0.00 | 98 | 1009.3 |
| 20260509103948 | 54 | 113 | 0.0 | 0.9 | 0.00 | 0.19 | 0.00 | 98 | 1009.3 |
| 20260509103724 | 54 | 129 | 0.0 | 0.9 | 0.00 | 0.19 | 0.00 | 98 | 1009.4 |
| 20260509103452 | 54 | 129 | 0.0 | 0.9 | 0.00 | 0.19 | 0.00 | 98 | 1009.4 |
| 20260509102737 | 55 | 175 | 0.0 | 0.9 | 0.00 | 0.19 | 0.00 | 98 | 1009.4 |
| 20260509102237 | 55 | 230 | 0.0 | 0.0 | 0.00 | 0.19 | 0.00 | 98 | 1009.4 |
| 20260509101737 | 55 | 230 | 0.0 | 1.7 | 0.00 | 0.19 | 0.00 | 98 | 1009.5 |
| 20260509101237 | 56 | 224 | 0.0 | 1.7 | 0.00 | 0.19 | 0.00 | 98 | 1009.6 |
| 20260509100737 | 55 | 216 | 0.9 | 1.7 | 0.00 | 0.19 | 0.00 | 98 | 1009.5 |
| 20260509100237 | 55 | 190 | 0.9 | 1.7 | 0.00 | 0.19 | 0.00 | 98 | 1009.9 |
| 20260509095737 | 56 | 201 | 0.9 | 1.7 | 0.00 | 0.19 | 0.00 | 98 | 1009.8 |
| 20260509095636 | 56 | 193 | 0.9 | 1.7 | 0.00 | 0.19 | 0.00 | 98 | 1010.0 |
| 20260509095452 | 56 | 193 | 0.9 | 1.7 | 0.00 | 0.19 | 0.00 | 98 | 1010.0 |
| 20260509094747 | 56 | 218 | 0.9 | 1.7 | 0.00 | 0.19 | 0.00 | 98 | 1010.2 |
| 20260509094538 | 56 | 124 | 0.0 | 1.7 | 0.00 | 0.19 | 0.00 | 98 | 1010.0 |
| 20260509094414 | 56 | 217 | 0.0 | 1.7 | 0.00 | 0.19 | 0.00 | 98 | 1010.0 |
| 20260509093736 | 56 | 124 | 0.0 | 1.7 | 0.00 | 0.19 | 0.00 | 98 | 1010.0 |
| 20260509093237 | 56 | 189 | 0.0 | 1.7 | 0.00 | 0.19 | 0.00 | 98 | 1009.8 |
| 20260509093126 | 56 | 245 | 0.9 | 1.7 | 0.00 | 0.19 | 0.00 | 98 | 1009.8 |
| 20260509092949 | 56 | 245 | 0.9 | 1.7 | 0.00 | 0.19 | 0.00 | 98 | 1009.8 |
| 20260509092238 | 56 | 129 | 0.0 | 0.0 | 0.00 | 0.19 | 0.00 | 98 | 1009.7 |
| 20260509091736 | 56 | 25 | 0.0 | 0.0 | 0.00 | 0.19 | 0.00 | 98 | 1009.8 |
| 20260509091632 | 56 | 327 | 0.0 | 1.7 | 0.00 | 0.19 | 0.00 | 98 | 1009.8 |
| 20260509091451 | 56 | 327 | 0.0 | 1.7 | 0.00 | 0.19 | 0.00 | 98 | 1009.8 |
| 20260509091117 | 56 | 13 | 0.0 | 1.7 | 0.00 | 0.19 | 0.00 | 98 | 1009.9 |
| 20260509090736 | 56 | 13 | 0.0 | 1.7 | 0.00 | 0.19 | 0.00 | 98 | 1009.9 |
| 20260509090238 | 56 | 11 | 0.0 | 1.7 | 0.00 | 0.19 | 0.00 | 98 | 1009.7 |
| 20260509090126 | 56 | 345 | 0.9 | 1.7 | 0.00 | 0.19 | 0.00 | 98 | 1009.8 |
| 20260509085737 | 56 | 345 | 0.9 | 1.7 | 0.00 | 0.19 | 0.00 | 98 | 1009.8 |
| 20260509085238 | 55 | 164 | 0.0 | 1.7 | 0.00 | 0.19 | 0.00 | 98 | 1009.8 |
| 20260509085135 | 56 | 138 | 0.9 | 1.7 | 0.00 | 0.19 | 0.00 | 98 | 1009.8 |
| 20260509084737 | 56 | 138 | 0.9 | 1.7 | 0.00 | 0.19 | 0.00 | 98 | 1009.8 |
| 20260509084237 | 56 | 62 | 0.0 | 0.9 | 0.00 | 0.19 | 0.00 | 98 | 1009.5 |
| 20260509083736 | 56 | 154 | 0.0 | 1.7 | 0.00 | 0.19 | 0.00 | 98 | 1009.6 |
| 20260509083307 | 56 | 224 | 0.0 | 1.7 | 0.00 | 0.19 | 0.00 | 98 | 1009.7 |
| 20260509083138 | 56 | 142 | 0.0 | 1.7 | 0.00 | 0.19 | 0.00 | 98 | 1009.6 |
| 20260509082738 | 56 | 142 | 0.0 | 1.7 | 0.00 | 0.19 | 0.00 | 98 | 1009.6 |
| 20260509082516 | 57 | 89 | 0.0 | 0.0 | 0.00 | 0.19 | 0.00 | 98 | 1009.8 |
| 20260509082355 | 56 | 117 | 0.0 | 1.7 | 0.00 | 0.19 | 0.00 | 98 | 1009.7 |
| 20260509081916 | 57 | 176 | 0.9 | 1.7 | 0.00 | 0.19 | 0.00 | 98 | 1009.9 |
| 20260509081448 | 57 | 89 | 0.0 | 0.0 | 0.00 | 0.19 | 0.00 | 98 | 1009.8 |
| 20260509081138 | 57 | 205 | 0.0 | 1.7 | 0.00 | 0.19 | 0.00 | 98 | 1009.9 |
| 20260509080947 | 57 | 205 | 0.0 | 1.7 | 0.00 | 0.19 | 0.00 | 98 | 1009.9 |
| 20260509080248 | 57 | 53 | 0.0 | 1.7 | 0.00 | 0.19 | 0.00 | 98 | 1009.9 |
| 20260509075737 | 57 | 135 | 0.0 | 1.7 | 0.00 | 0.19 | 0.00 | 98 | 1010.0 |
| 20260509075638 | 57 | 174 | 0.9 | 1.7 | 0.00 | 0.19 | 0.00 | 98 | 1009.9 |
| 20260509075241 | 57 | 174 | 0.9 | 1.7 | 0.00 | 0.19 | 0.00 | 98 | 1009.9 |
| 20260509074738 | 57 | 230 | 0.0 | 1.7 | 0.00 | 0.19 | 0.00 | 98 | 1010.1 |
| 20260509074236 | 58 | 229 | 0.9 | 1.7 | 0.00 | 0.19 | 0.00 | 98 | 1010.2 |
| 20260509074052 | 57 | 164 | 0.0 | 2.6 | 0.00 | 0.19 | 0.00 | 98 | 1010.1 |
| 20260509073917 | 57 | 172 | 0.0 | 0.0 | 0.00 | 0.19 | 0.00 | 98 | 1010.1 |
| 20260509073238 | 57 | 164 | 0.0 | 2.6 | 0.00 | 0.19 | 0.00 | 98 | 1010.1 |
| 20260509073127 | 58 | 171 | 0.0 | 2.6 | 0.00 | 0.19 | 0.00 | 98 | 1010.2 |
| 20260509072737 | 58 | 171 | 0.0 | 2.6 | 0.00 | 0.19 | 0.00 | 98 | 1010.2 |
| 20260509072525 | 58 | 343 | 0.0 | 0.9 | 0.00 | 0.19 | 0.00 | 98 | 1010.1 |
| 20260509072401 | 58 | 232 | 1.7 | 1.7 | 0.00 | 0.19 | 0.00 | 98 | 1010.3 |
| 20260509071239 | 58 | 351 | 0.0 | 0.9 | 0.00 | 0.19 | 0.00 | 98 | 1010.2 |
| 20260509071136 | 58 | 315 | 0.0 | 0.9 | 0.00 | 0.19 | 0.00 | 98 | 1010.3 |
| 20260509070949 | 58 | 315 | 0.0 | 0.9 | 0.00 | 0.19 | 0.00 | 98 | 1010.3 |
| 20260509070237 | 58 | 135 | 0.0 | 1.7 | 0.00 | 0.19 | 0.00 | 98 | 1010.4 |
| 20260509065738 | 58 | 138 | 0.9 | 2.6 | 0.00 | 0.19 | 0.00 | 98 | 1010.2 |
| 20260509065639 | 58 | 223 | 1.7 | 2.6 | 0.00 | 0.19 | 0.00 | 98 | 1010.2 |
| 20260509065236 | 58 | 223 | 1.7 | 2.6 | 0.00 | 0.19 | 0.00 | 98 | 1010.2 |
| 20260509064737 | 58 | 129 | 0.0 | 1.7 | 0.00 | 0.19 | 0.00 | 98 | 1010.4 |
| 20260509064645 | 58 | 158 | 0.9 | 1.7 | 0.00 | 0.19 | 0.00 | 98 | 1010.7 |
| 20260509064448 | 58 | 158 | 0.9 | 1.7 | 0.00 | 0.19 | 0.00 | 98 | 1010.7 |
| 20260509063737 | 58 | 198 | 0.9 | 1.7 | 0.00 | 0.19 | 0.00 | 98 | 1010.6 |
| 20260509063238 | 58 | 135 | 0.0 | 1.7 | 0.00 | 0.19 | 0.00 | 98 | 1010.6 |
| 20260509063226 | 58 | 155 | 0.9 | 1.7 | 0.00 | 0.19 | 0.00 | 98 | 1010.4 |
| 20260509062737 | 58 | 155 | 0.9 | 1.7 | 0.00 | 0.19 | 0.00 | 98 | 1010.4 |
| 20260509062238 | 58 | 143 | 1.7 | 1.7 | 0.00 | 0.19 | 0.00 | 98 | 1010.6 |
| 20260509062138 | 58 | 192 | 1.7 | 1.7 | 0.00 | 0.19 | 0.00 | 98 | 1010.8 |
| 20260509061950 | 58 | 192 | 1.7 | 1.7 | 0.00 | 0.19 | 0.00 | 98 | 1010.8 |
| 20260509061236 | 58 | 135 | 0.0 | 0.9 | 0.00 | 0.19 | 0.00 | 98 | 1010.6 |
| 20260509061053 | 59 | 49 | 0.9 | 1.7 | 0.00 | 0.19 | 0.00 | 98 | 1010.9 |
| 20260509060920 | 59 | 198 | 0.0 | 1.7 | 0.00 | 0.19 | 0.00 | 98 | 1010.8 |
| 20260509060450 | 59 | 49 | 0.9 | 1.7 | 0.00 | 0.19 | 0.00 | 98 | 1010.9 |
| 20260509060224 | 59 | 169 | 0.0 | 1.7 | 0.00 | 0.19 | 0.00 | 98 | 1010.9 |
| 20260509055950 | 59 | 169 | 0.0 | 1.7 | 0.00 | 0.19 | 0.00 | 98 | 1010.9 |
| 20260509055243 | 59 | 180 | 0.9 | 1.7 | 0.00 | 0.19 | 0.00 | 98 | 1010.8 |
| 20260509054738 | 59 | 174 | 0.0 | 1.7 | 0.00 | 0.19 | 0.00 | 97 | 1010.7 |
| 20260509054238 | 59 | 180 | 0.0 | 1.7 | 0.00 | 0.19 | 0.00 | 97 | 1010.7 |
| 20260509053736 | 60 | 182 | 1.7 | 2.6 | 0.00 | 0.19 | 0.00 | 98 | 1010.7 |
| 20260509053617 | 60 | 186 | 1.7 | 3.5 | 0.00 | 0.19 | 0.00 | 98 | 1010.3 |
| 20260509053440 | 60 | 160 | 1.7 | 3.5 | 0.00 | 0.19 | 0.00 | 97 | 1010.4 |
| 20260509052948 | 60 | 186 | 1.7 | 3.5 | 0.00 | 0.19 | 0.00 | 98 | 1010.3 |
| 20260509052237 | 60 | 84 | 2.6 | 5.2 | 0.00 | 0.19 | 0.00 | 98 | 1010.4 |
| 20260509052126 | 60 | 87 | 1.7 | 5.2 | 0.00 | 0.19 | 0.00 | 98 | 1010.3 |
| 20260509051737 | 60 | 87 | 1.7 | 5.2 | 0.00 | 0.19 | 0.00 | 98 | 1010.3 |
| 20260509051637 | 60 | 85 | 1.7 | 5.2 | 0.00 | 0.19 | 0.00 | 98 | 1010.4 |
| 20260509051449 | 60 | 85 | 1.7 | 5.2 | 0.00 | 0.19 | 0.00 | 98 | 1010.4 |
| 20260509051137 | 60 | 129 | 1.7 | 6.1 | 0.00 | 0.19 | 0.00 | 98 | 1010.3 |
| 20260509050949 | 60 | 129 | 1.7 | 6.1 | 0.00 | 0.19 | 0.00 | 98 | 1010.3 |
| 20260509050236 | 60 | 100 | 2.6 | 6.1 | 0.00 | 0.19 | 0.00 | 98 | 1010.4 |
| 20260509045734 | 60 | 140 | 1.7 | 4.3 | 0.00 | 0.19 | 0.19 | 98 | 1010.3 |
| 20260509045635 | 60 | 123 | 0.9 | 4.3 | 0.00 | 0.19 | 0.19 | 98 | 1010.1 |
| 20260509045447 | 60 | 123 | 0.9 | 4.3 | 0.00 | 0.19 | 0.19 | 98 | 1010.1 |